KD8UGJ Weather Reports


Display with metric or nautical units.
time (UTC)temp
F
wind
direction
speed
MPH
gust
MPH
rain 1hr
in
rain 24hr
in
rain mn
in
humidity
%
barometer
mb
20260508174518 56 190 4.0 16.0 0.01 0.08 0.06 80 1011.9
20260508173014 56 360 6.0 11.0 0.02 0.08 0.06 81 1012.0
20260508171510 55 360 6.0 11.0 0.02 0.08 0.06 83 1012.3
20260508170009 53 158 3.0 9.0 0.02 0.08 0.06 85 1012.6
20260508164508 52 360 3.0 10.0 0.01 0.07 0.05 82 1012.9
20260508163014 53 252 3.0 11.0 0.00 0.06 0.04 80 1013.0
20260508161507 53 262 5.0 12.0 0.00 0.06 0.04 79 1013.3
20260508160007 53 252 6.0 12.0 0.00 0.06 0.04 78 1013.1
20260508154507 53 260 3.0 13.0 0.00 0.06 0.04 78 1013.2
20260508153016 53 280 5.0 11.0 0.00 0.06 0.04 77 1013.0
20260508151505 54 234 6.0 16.0 0.00 0.06 0.04 76 1012.9
20260508150006 55 263 7.0 15.0 0.00 0.06 0.04 77 1013.0
20260508144503 54 240 6.0 11.0 0.00 0.06 0.04 79 1013.0
20260508143118 53 266 8.0 15.0 0.00 0.06 0.04 78 1013.1
20260508141606 53 236 8.0 13.0 0.00 0.06 0.04 77 1013.1
20260508140118 53 284 5.0 15.0 0.00 0.06 0.04 77 1013.1
20260508134557 53 244 6.0 13.0 0.00 0.06 0.04 77 1013.2
20260508133103 52 360 8.0 16.0 0.00 0.06 0.04 76 1013.1
20260508131556 52 257 9.0 15.0 0.00 0.06 0.04 75 1013.3
20260508130054 52 280 6.0 10.0 0.00 0.06 0.04 77 1013.3
20260508124549 50 360 6.0 13.0 0.00 0.06 0.04 78 1013.1
20260508123049 49 242 5.0 10.0 0.00 0.06 0.04 80 1013.3
20260508121547 48 265 5.0 9.0 0.00 0.06 0.04 80 1013.2
20260508120042 48 360 5.0 11.0 0.00 0.06 0.04 80 1013.2
20260508114539 47 269 4.0 10.0 0.00 0.06 0.04 82 1013.0
20260508113039 46 360 3.0 8.0 0.00 0.06 0.04 84 1012.7
20260508111540 45 242 2.0 9.0 0.00 0.06 0.04 85 1012.5
20260508110036 44 360 2.0 6.0 0.00 0.06 0.04 86 1012.4
20260508104534 44 233 3.0 8.0 0.00 0.06 0.04 88 1012.5
20260508103043 43 360 2.0 4.0 0.00 0.06 0.04 89 1012.3
20260508101532 43 192 1.0 3.0 0.00 0.06 0.04 89 1012.3
20260508100041 43 179 2.0 5.0 0.00 0.06 0.04 89 1012.3
20260508094527 44 171 2.0 4.0 0.01 0.06 0.04 88 1012.5
20260508093033 45 173 3.0 7.0 0.01 0.06 0.04 88 1012.6
20260508091526 45 182 3.0 8.0 0.01 0.06 0.04 88 1012.4
20260508090026 45 360 5.0 10.0 0.01 0.06 0.04 87 1012.4
20260508084522 45 159 4.0 7.0 0.00 0.05 0.03 87 1012.5
20260508083021 45 360 2.0 8.0 0.00 0.05 0.03 88 1012.6
20260508081520 45 148 4.0 6.0 0.00 0.05 0.03 87 1012.7
20260508080017 45 360 2.0 6.0 0.00 0.05 0.03 86 1012.7
20260508074517 46 360 2.0 5.0 0.02 0.05 0.03 86 1012.7
20260508073017 46 360 3.0 8.0 0.02 0.05 0.03 86 1012.8
20260508071516 46 360 3.0 9.0 0.02 0.05 0.03 87 1013.0
20260508070015 46 360 5.0 11.0 0.02 0.05 0.03 88 1012.8
20260508064512 45 230 2.0 5.0 0.00 0.03 0.01 88 1013.0
20260508063011 45 360 2.0 11.0 0.00 0.03 0.01 88 1013.1
20260508061508 45 360 4.0 9.0 0.00 0.03 0.01 88 1013.2
20260508060006 46 188 2.0 9.0 0.01 0.03 0.01 87 1013.4
20260508054510 46 360 3.0 8.0 0.02 0.03 0.01 87 1013.4
20260508053003 46 360 2.0 9.0 0.02 0.03 0.01 86 1013.4
20260508051600 46 360 4.0 6.0 0.03 0.03 0.01 85 1013.9
20260508050059 47 263 4.0 10.0 0.02 0.02 0.00 84 1014.5
20260508044558 47 276 3.0 6.0 0.01 0.01 0.01 82 1014.5
20260508043100 47 249 1.0 7.0 0.01 0.01 0.01 81 1014.2
20260508041556 47 360 4.0 9.0 0.00 0.00 0.00 78 1014.0
20260508040056 47 180 1.0 3.0 0.00 0.00 0.00 79 1013.5
20260508034556 47 179 1.0 6.0 0.00 0.00 0.00 79 1013.5
20260508033055 47 162 3.0 6.0 0.00 0.00 0.00 80 1013.6
20260508031559 47 171 1.0 2.0 0.00 0.00 0.00 79 1013.8
20260508024607 48 173 1.0 4.0 0.00 0.00 0.00 77 1014.0
20260508023053 49 360 0.0 3.0 0.00 0.00 0.00 76 1014.1
20260508021553 49 360 1.0 3.0 0.00 0.00 0.00 74 1014.1
20260508020103 49 360 0.0 3.0 0.00 0.00 0.00 74 1014.1
20260508014553 49 253 1.0 6.0 0.00 0.00 0.00 74 1014.2
20260508013053 50 259 3.0 7.0 0.00 0.00 0.00 72 1014.1
20260508011553 50 360 5.0 13.0 0.00 0.00 0.00 69 1014.0
20260508010053 50 277 6.0 11.0 0.00 0.00 0.00 69 1013.9
20260508004550 50 287 10.0 14.0 0.00 0.00 0.00 70 1013.7
20260508003052 51 296 15.0 26.0 0.00 0.00 0.00 64 1013.6
20260508001549 53 360 9.0 21.0 0.00 0.00 0.00 59 1013.4
20260508000049 53 360 14.0 24.0 0.00 0.00 0.00 58 1013.2
20260507234548 54 360 15.0 27.0 0.00 0.00 0.00 53 1013.0
20260507233048 54 239 3.0 10.0 0.00 0.00 0.00 58 1013.0
20260507231547 55 274 6.0 12.0 0.00 0.00 0.00 53 1013.0
20260507230045 55 272 5.0 10.0 0.00 0.00 0.00 55 1013.0
20260507224547 55 290 6.0 11.0 0.00 0.00 0.00 53 1013.0
20260507223045 56 360 11.0 16.0 0.00 0.00 0.00 53 1012.9
20260507221543 57 257 7.0 13.0 0.00 0.00 0.00 52 1013.1
20260507220043 56 250 8.0 15.0 0.00 0.00 0.00 50 1013.2
20260507214548 56 269 9.0 19.0 0.00 0.00 0.00 48 1013.1
20260507213041 57 360 12.0 22.0 0.00 0.00 0.00 53 1013.0
20260507211543 57 360 13.0 23.0 0.00 0.00 0.00 51 1013.0
20260507210039 56 290 12.0 18.0 0.00 0.00 0.00 55 1013.1
20260507204538 57 313 14.0 24.0 0.00 0.00 0.00 55 1013.1
20260507203038 55 360 19.0 25.0 0.00 0.00 0.00 54 1013.2
20260507201534 56 360 19.0 23.0 0.00 0.00 0.00 55 1013.4
20260507200035 55 360 17.0 25.0 0.00 0.00 0.00 55 1013.4
20260507194534 56 360 18.0 25.0 0.00 0.00 0.00 55 1013.4
20260507193036 56 360 21.0 28.0 0.00 0.00 0.00 56 1013.3
20260507191533 56 262 17.0 24.0 0.00 0.00 0.00 58 1013.4
20260507190033 56 360 20.0 24.0 0.00 0.00 0.00 56 1013.5
20260507184531 56 360 16.0 22.0 0.00 0.00 0.00 57 1013.7
20260507183040 54 303 13.0 24.0 0.00 0.00 0.00 60 1013.8
20260507181529 54 271 10.0 26.0 0.00 0.00 0.00 64 1014.0
20260507180031 53 360 16.0 23.0 0.00 0.00 0.00 62 1014.0